map of SZF home
Great Circle Mapper logo
SZF - Airport
Location
City:  Samsun, Turkey
Name:Carsamba
ICAO / IATA:LTFH / SZF

Details
Type:Airport (Aerodrome, Airfield)
Latitude:4115'16"N (41.254481)
Longitude:3634'02"E (36.567106)
Datum:WGS 1984
Elevation:18 ft (5 m)
Variation:5.95E (WMM2015 magnetic declination)
0.09 annual change
Runways:1
Longest:9843 × 148 ft (3000 × 45 m), paved

Time
Time Zone:UTC+2 (DST+3)
Local Time:

Weather
METAR:LTFH 301150Z 34004KT 310V020 8000 -RA SCT015 BKN030 OVC090 10/09 Q1010 NOSIG

Related Locations
Nearby:
Farthest:NTAV: 11209 mi / 18039 km
Raivavae, Tubuai Islands, Austral Islands, PF

Find:

   beyond  
but within

Other Information
Maps:
NOTAMs:
Links:
Sources:

  
flag of Turkey   

Sectional Chart

Flight Planning
at skyvector.com

Satellite Image

Google Maps Satellite View

 

Copyright © 2004-2015 Karl L. Swartz. All rights reserved.
The Great Circle Mapper name and logo are trademarks of the Great Circle Mapper.
All other trademarks mentioned herein belong to their respective owners.
Please see credits for attibutions and further copyright information.

  Follow gcmap on Facebook Follow gcmap on Twitter Follow gcmap on Google+

hCard Microformat

Geo Microformat